Jakarta Soekarno-Hatta, Indonesia

12:01 PM WIB on June 03, 2015 (GMT +0700)
Soekarno-Hatta International | | Change Station
CLOSE
Current Station
Airport
Location: Jakarta Soekarno-Hatta,
Elevation: 26 ft
Nearby Weather Stations

Elev 26 ft 6.13 °S, 106.66 °E | Updated 31 minutes ago

Scattered Clouds
Scattered Clouds
90 °F
Feels Like 100 °F
N
8
Wind Variable Wind from NNE

Today
High -- | Low -- °F
--% Chance of Precip.
Yesterday
High -- | Low -- °F
Precip. -- in
5:57 AM 5:45 PM
Full, 100% visible
Pressure 29.83 in
Visibility 4.3 miles
Clouds Few 1900 ft
Scattered Clouds 2000 ft
Heat Index 100 °F
Dew Point 75 °F
Humidity 62%
Rainfall 0.00 in
Snow Depth Not available.
UV 10 out of 12
Pollen Not available.
Air Quality Not available.
Flu Activity Not available.
METAR WIII 030430Z 03007KT 360V060 7000 FEW019CB SCT020 32/24 Q1010 N OSIG RMK CB TO NW

More Conditions Fewer Conditions

Pressure 29.83 in
Visibility 4.3 miles
Clouds Few 1900 ft
Scattered Clouds 2000 ft
Heat Index 100 °F
Dew Point 75 °F
Humidity 62%
Rainfall 0.00 in
Snow Depth Not available.
UV 10 out of 12
Pollen Not available.
Air Quality Not available.
Flu Activity Not available.
METAR WIII 030430Z 03007KT 360V060 7000 FEW019CB SCT020 32/24 Q1010 N OSIG RMK CB TO NW

More Conditions Fewer Conditions

10-Day Weather Forecast

×

Almanac

Astronomy

Jun. 03, 2015 Rise Set
Actual Time
Civil Twilight
Nautical Twilight
Astronomical Twilight
Moon
Length of Visible Light
Length of Day
Tomorrow will be .
, % of the Moon is Illuminated

Today's Extremes

Country Highs Country Lows

Community

WunderPhotos

Upload Photos

1,826,168 photos uploaded!

WunderBlogs® & News

Nearby

Air Quality

  Air Quality AQ Index Pollutant
Not available.

Snow Depth

Station Depth Elevation

Earthquake Activity

City Distance Mag. Time & Date
Minimum magnitude displayed is 2.5.

Coastal Water Temperatures

Place Temperature

Stations

Nearby Weather Stations

Station Location Temp. Windchill Dew Point Humidity Wind Precip. Elev Updated Type